CZ-6A DEB, 54637

Orbit data source: Space-Track

CZ-6A DEB, 54637 is space debris in SSO originally from a launch on Fri, 11 Nov 2022 UTC launched from the Taiyaun Space Center, China (TSC). Debris objects in space refer to the collection of defunct objects orbiting the Earth. Examples of debris include non-operational satellites, rocket bodies, and fragments generated from explosions, collisions, or faulty payload assembly.

Loading next visibility...
Identifier
54637, 2022-151PP
Orbit
SSO
Country
Flag of CNCN / PRC
Related business
Manufacturer
SAST
Mission
Spacecraft
Bus & Motor
Unknown
Mass
Unknown
Launch date (UTC)
2022-11-11 (3 years ago)
Launch vehicle
Unknown
Launch site
Taiyaun Space Center, China (TSC)
Object type
Payload
Rocket body
Debris
Shape & HBR
Unknown shape, 0.1 m
Radar Cross Section
Small (<0.1 m²)

Expand to show TLE details & history
Last TLE update: 22 hours ago

TLE from 22 hours ago
0 CZ-6A DEB
1 54637U 22151PP  25351.94811150  .00003062  00000-0  14893-2 0  9999
2 54637  98.8381 353.4655 0061637 140.8835 219.6820 14.17965796158330
Epoch: 2025-12-17T22:45Z
TLE epoch observation values (Epoch: 2025-12-17T22:45:16.833Z)
Latitude
-0.00003°
Longitude
-74.66528°
Altitude
869.469 km
Speed
7.4 km/s
True Right ascension
23h 33m 51s
True Declination
0° 00' 00"
Sunlit
Object was in daylight at epoch
Visualization orbit readout
Latitude
Unknown
Longitude
Unknown
Altitude
Unknown
Speed
Unknown
Apparent Right ascension
Unknown
Apparent Declination
Unknown
Sunlit
N/A
Visualization observer readout
Local Sidereal Time
19:59:41
Azimuth
Unknown
Elevation
Unknown
Doppler factor
Unknown
Orbital elements
Apogee altitude
873.833 km
Perigee altitude
784.983 km
Semi-major axis
7,207.545 km
Eccentricity
0.00616
Inclination
98.8381°
RAAN
353.4655°
Arg. of periapsis
140.8835°
True anomaly
219.23367°
Mean anomaly
219.682°
Eccentric anomaly
219.45757°
Mean motion
3.54701 °/min
Orbital period
101.49 mins
BSTAR
0.0014893
Loading maneuver chart data...
Computing Atmospheric mass density...
Loading historical data...
Loading historical data...
Loading historical data...
Loading historical data...
Loading historical data...
Loading historical data...
Loading historical data...

Documentation

Showing up to 5 results
|